Kenosha Regional Airport Kenosha US
ICAO: KENW
IATA: ENW
Category: Medium
Scheduled Services: No

Elevation: 742 ft
TransAlt. 18000 ft.

Airport Communications:
MILWAUKEE APP/DEP:120.15
ASOS:127.175
ATIS:127.175
CLNC DEL:118.6
CTAF:118.6
GND:121.875
GREEN BAY RDO:109.2
TWR:118.6
UNICOM:122.95

KENW Zoom In..

Runways:

(A) RW 07L length 5499 ft width 100 ft
ILS 109.35 / hdg 66

(B) RW 07R length 3302 ft width 75 ft
---- / hdg 66

(C) RW 15 length 4440 ft width 100 ft
---- / hdg 146

(D) RW 25L length 3302 ft width 75 ft
---- / hdg 246

(E) RW 25R length 5499 ft width 100 ft
---- / hdg 246

(F) RW 33 length 4440 ft width 100 ft
---- / hdg 326

Location; KENW
Day. 24 / Time. 12.53 Zulu
* Altimeter: 30.21
* Temperature: 19° c. 66.2°f.
* Wind from: 160° Speed 04 kn.
Dewpoint: 12° c.
Visibility: 10 Statute Miles.
Clouds: Clear (automated report).

KENW 241253Z 16004KT 10SM CLR 19/12 A3021 RMK AO2 SLP228 T01940122


Wind From 160°
Speed 04 kn.

 
 
jpsmedia.com for Web Design SOUNDCLOUD worldairports.se 2018   terms of use